Dillon, MT

3:31 AM MDT on April 19, 2018 (GMT -0600)
Dillon

Weather History for KDLN - November, 2013

Change the Weather History Date:

Tuesday, November 19, 2013

  Actual Average Record
Temperature  
Mean Temperature 42 °F 29 °F  
Max Temperature 52 °F 39 °F 61 °F (1989)
Min Temperature 32 °F 18 °F -11 °F (1985)
Degree Days  
Heating Degree Days 23    
Month to date heating degree days 533  
Since 1 July heating degree days 1538  
Cooling Degree Days 0    
Month to date cooling degree days 0  
Year to date cooling degree days 247  
Moisture  
Dew Point 25 °F    
Average Humidity 50    
Maximum Humidity 64    
Minimum Humidity 35    
Precipitation  
Precipitation 0.00 in 0.01 in 0.75 in (1973)
Month to date precipitation 0.02 0.25  
Year to date precipitation 9.75 10.18  
Snow  
Snow 0.00 in - - ()
Snow Depth 0.00 in    
Sea Level Pressure  
Sea Level Pressure 29.70 in    
Wind  
Wind Speed 13 mph (SSW)    
Max Wind Speed 24 mph    
Max Gust Speed 31 mph    
Visibility 10 miles    
Events      
T = Trace of Precipitation, MM = Missing Value Source: NWS Daily Summary

Daily Weather History Graph

Daily Weather History Graph

Search for Another Location

Airport or City:

Astronomy

Nov. 19, 2013 Rise Set
Actual Time 7:34 AM MST 4:56 PM MST
Civil Twilight 7:02 AM MST 5:28 PM MST
Nautical Twilight 6:26 AM MST 6:04 PM MST
Astronomical Twilight 5:50 AM MST 6:39 PM MST
Moon 6:50 PM MST 9:17 AM MST
Length of Visible Light 10h 26m
Length of Day
9h 22m
Waning Gibbous, 96% of the Moon is Illuminated
Nov 19
Waning Gibbous
Nov 25
Last Quarter
Dec 2
New
Dec 9
First Quarter
Dec 17
Full

Hourly Weather History & Observations

Time (MST) Temp. Windchill Dew Point Humidity Pressure Visibility Wind Dir Wind Speed Gust Speed Precip Events Conditions
12:53 AM 35.1 °F 31.0 °F 19.9 °F 54% 29.76 in 10.0 mi West 4.6 mph - N/A   Scattered Clouds
1:53 AM 33.1 °F 27.7 °F 21.0 °F 61% 29.75 in 10.0 mi SW 5.8 mph - N/A   Scattered Clouds
2:53 AM 35.1 °F 28.6 °F 24.1 °F 64% 29.73 in 10.0 mi South 8.1 mph - N/A   Overcast
3:53 AM 36.0 °F 30.3 °F 25.0 °F 64% 29.74 in 10.0 mi WSW 6.9 mph - N/A   Overcast
4:53 AM 39.0 °F 31.0 °F 25.0 °F 57% 29.74 in 10.0 mi SW 13.8 mph - N/A   Overcast
5:53 AM 41.0 °F 33.5 °F 25.0 °F 53% 29.73 in 10.0 mi SSW 13.8 mph - N/A   Overcast
6:53 AM 37.9 °F 31.5 °F 25.0 °F 60% 29.75 in 10.0 mi SSW 9.2 mph - N/A   Mostly Cloudy
7:53 AM 37.9 °F 32.1 °F 26.1 °F 62% 29.75 in 10.0 mi SW 8.1 mph - N/A   Overcast
8:53 AM 39.9 °F 32.9 °F 26.1 °F 58% 29.74 in 10.0 mi SW 11.5 mph - N/A   Overcast
9:53 AM 44.1 °F 38.6 °F 26.1 °F 49% 29.73 in 10.0 mi SW 10.4 mph - N/A   Overcast
10:53 AM 46.9 °F - 25.0 °F 42% 29.70 in 10.0 mi SW 12.7 mph - N/A   Partly Cloudy
11:53 AM 51.1 °F - 25.0 °F 36% 29.67 in 10.0 mi WSW 19.6 mph 27.6 mph N/A   Clear
12:53 PM 50.0 °F - 25.0 °F 38% 29.66 in 10.0 mi SW 18.4 mph 26.5 mph N/A   Clear
1:53 PM 48.9 °F - 25.0 °F 39% 29.68 in 10.0 mi SW 20.7 mph 27.6 mph N/A   Mostly Cloudy
2:53 PM 48.9 °F - 25.0 °F 39% 29.65 in 10.0 mi WSW 20.7 mph 29.9 mph N/A   Overcast
3:53 PM 46.9 °F - 26.1 °F 44% 29.66 in 10.0 mi South 11.5 mph - N/A   Mostly Cloudy
4:53 PM 45.0 °F 38.5 °F 27.0 °F 49% 29.67 in 10.0 mi South 13.8 mph - N/A   Overcast
5:53 PM 44.1 °F 37.1 °F 26.1 °F 49% 29.65 in 10.0 mi South 15.0 mph - N/A   Overcast
6:53 PM 43.0 °F 34.8 °F 25.0 °F 49% 29.66 in 10.0 mi SSW 18.4 mph - N/A   Scattered Clouds
7:53 PM 45.0 °F 38.2 °F 26.1 °F 48% 29.68 in 10.0 mi SSW 15.0 mph - N/A   Overcast
8:53 PM 45.0 °F 38.5 °F 26.1 °F 48% 29.67 in 10.0 mi South 13.8 mph 23.0 mph N/A   Overcast
9:53 PM 44.1 °F 37.4 °F 26.1 °F 49% 29.66 in 10.0 mi South 13.8 mph - N/A   Overcast
10:53 PM 44.1 °F 38.1 °F 27.0 °F 51% 29.65 in 10.0 mi South 11.5 mph 20.7 mph N/A   Overcast
11:53 PM 42.1 °F 36.6 °F 27.0 °F 55% 29.65 in 10.0 mi SSE 9.2 mph - N/A   Overcast